Location: ????????
(55.6189°N, 38.3031°E)
Time: 22:09:24
(UTC+00:00)

Lacrosse 5 - Pass Details

Date: 15 November 2019
Orbit: 715 x 724 km, 57.0° (Epoch: 04 December)

Event Time Altitude Azimuth Distance (km) Brightness Sun altitude
Exits shadow 01:26:38 24° 151° (SSE) 1,461 3.6 -29.8°
Maximum altitude 01:27:33 25° 134° (SE) 1,413 3.6 -29.6°
Drops below altitude 10° 01:31:40 10° 79° (E) 2,205 5.3 -29.1°
Sets 01:34:22 0° 67° (ENE) 3,127 6.3 -28.7°
